Plymouth, NH

3:23 PM EDT on July 22, 2017 (GMT -0400)
Plymouth

Weather History for K1P1 - January, 2013

Change the Weather History Date:

Sunday, January 6, 2013

  Actual Average (KLCI) Record (KLCI)
Temperature  
Mean Temperature 18 °F -  
Max Temperature 28 °F 30 °F 66 °F (2007)
Min Temperature 9 °F 13 °F -6 °F (1996)
Degree Days  
Heating Degree Days 46    
Moisture  
Dew Point 17 °F    
Average Humidity 88    
Maximum Humidity 97    
Minimum Humidity 78    
Precipitation  
Precipitation 0.00 in - - ()
Sea Level Pressure  
Sea Level Pressure 30.00 in    
Wind  
Wind Speed 0 mph (South)    
Max Wind Speed 4 mph    
Max Gust Speed -    
Visibility 8 miles    
Events Snow    
Averages and records for this station are not official NWS values.
T = Trace of Precipitation, MM = Missing Value Source: NWS Daily Summary

Daily Weather History Graph

Daily Weather History Graph

Search for Another Location

Airport or City:

Trip Planner

Search our weather history database for the weather conditions in past years. The results will help you decide how hot, cold, wet, or windy it might be!

Date:

Astronomy

Jan. 06, 2013 Rise Set
Actual Time 7:20 AM EST 4:25 PM EST
Civil Twilight 6:48 AM EST 4:58 PM EST
Nautical Twilight 6:12 AM EST 5:34 PM EST
Astronomical Twilight 5:37 AM EST 6:08 PM EST
Moon 1:27 AM EST (1/6) 11:54 AM EST (1/6)
Length of Visible Light 10h 09m
Length of Day
9h 04m
Waning Crescent, 33% of the Moon is Illuminated
Jan 6
Waning Crescent
Jan 11
New
Jan 18
First Quarter
Jan 26
Full
Feb 3
Last Quarter

Hourly Weather History & Observations

Time (EST) Temp. Windchill Dew Point Humidity Pressure Visibility Wind Dir Wind Speed Gust Speed Precip Events Conditions
12:15 AM 10.4 °F - 8.6 °F 92% 30.19 in 10.0 mi Calm Calm - N/A   Unknown
12:35 AM 10.4 °F - 8.4 °F 92% 30.19 in 10.0 mi Calm Calm - N/A   Unknown
12:55 AM 9.0 °F - 7.3 °F 93% 30.17 in 10.0 mi Calm Calm - N/A   Unknown
1:15 AM 9.1 °F - 7.5 °F 93% 30.16 in 10.0 mi Calm Calm - N/A   Unknown
1:35 AM 10.2 °F - 8.2 °F 92% 30.18 in 10.0 mi Calm Calm - N/A   Unknown
1:55 AM 11.3 °F - 9.3 °F 92% 30.18 in 10.0 mi Calm Calm - N/A   Unknown
2:15 AM 11.3 °F - 9.3 °F 92% 30.17 in 7.0 mi Calm Calm - N/A   Unknown
2:35 AM 11.8 °F 5.7 °F 9.7 °F 91% 30.16 in 10.0 mi South 3.5 mph - N/A   Unknown
2:55 AM 12.6 °F - 10.2 °F 90% 30.15 in 10.0 mi Calm Calm - N/A   Unknown
3:15 AM 12.9 °F - 10.4 °F 90% 30.15 in 10.0 mi Calm Calm - N/A   Unknown
3:35 AM 13.5 °F - 10.9 °F 90% 30.15 in 7.0 mi Calm Calm - N/A   Unknown
3:55 AM 13.6 °F - 11.1 °F 90% 30.13 in 7.0 mi Calm Calm - N/A   Unknown
4:15 AM 14.0 °F - 11.3 °F 89% 30.11 in 7.0 mi Calm Calm - N/A   Unknown
4:35 AM 14.4 °F - 11.3 °F 88% 30.09 in 10.0 mi Calm Calm - N/A   Unknown
4:55 AM 14.9 °F - 11.7 °F 87% 30.08 in 10.0 mi Calm Calm - N/A   Unknown
5:15 AM 15.3 °F - 11.8 °F 86% 30.08 in 10.0 mi Calm Calm - N/A   Unknown
5:35 AM 15.3 °F - 12.0 °F 87% 30.07 in 7.0 mi Calm Calm - N/A   Unknown
5:55 AM 15.4 °F - 12.4 °F 88% 30.07 in 5.0 mi Calm Calm - N/A Snow Light Snow
6:15 AM 15.6 °F - 12.7 °F 88% 30.06 in 3.0 mi Calm Calm - N/A Snow Light Snow
6:35 AM 15.6 °F - 13.1 °F 90% 30.06 in 2.0 mi Calm Calm - N/A Snow Light Snow
6:55 AM 15.8 °F - 13.3 °F 90% 30.04 in 1.5 mi Calm Calm - N/A Snow Light Snow
7:15 AM 15.8 °F - 13.6 °F 91% 30.04 in 2.5 mi Calm Calm - N/A Snow Light Snow
7:35 AM 16.0 °F - 14.0 °F 92% 30.04 in 4.0 mi Calm Calm - N/A Snow Light Snow
7:55 AM 16.3 °F - 14.0 °F 90% 30.03 in 10.0 mi Calm Calm - N/A   Unknown
8:15 AM 16.7 °F - 14.4 °F 91% 30.03 in 10.0 mi Calm Calm - N/A   Unknown
8:35 AM 16.7 °F - 14.4 °F 91% 30.01 in 10.0 mi Calm Calm - N/A   Unknown
8:55 AM 17.4 °F - 14.7 °F 89% 30.01 in 10.0 mi Calm Calm - N/A   Unknown
9:15 AM 17.4 °F - 14.5 °F 88% 30.01 in 10.0 mi Calm Calm - N/A   Unknown
9:35 AM 18.0 °F - 14.7 °F 87% 30.01 in 7.0 mi Calm Calm - N/A Snow Light Snow
9:55 AM 18.9 °F - 15.4 °F 87% 30.01 in 7.0 mi Calm Calm - N/A Snow Light Snow
10:35 AM 20.7 °F - 16.5 °F 84% 29.99 in 10.0 mi Calm Calm - N/A   Unknown
10:55 AM 21.2 °F - 16.9 °F 83% 29.97 in 7.0 mi Calm Calm - N/A Snow Light Snow
11:15 AM 22.5 °F - 18.1 °F 83% 29.96 in 10.0 mi Calm Calm - N/A   Unknown
11:35 AM 23.7 °F - 18.9 °F 82% 29.95 in 7.0 mi Calm Calm - N/A Snow Light Snow
11:55 AM 23.9 °F - 19.2 °F 82% 29.94 in 10.0 mi Calm Calm - N/A Snow Light Snow
12:15 PM 24.3 °F - 19.4 °F 82% 29.93 in 3.0 mi Calm Calm - N/A Snow Light Snow
12:35 PM 24.8 °F - 19.9 °F 82% 29.92 in 3.0 mi Calm Calm - N/A Snow Light Snow
12:55 PM 25.3 °F - 20.3 °F 81% 29.92 in 5.0 mi Calm Calm - N/A Snow Light Snow
1:15 PM 25.7 °F - 20.7 °F 81% 29.92 in 10.0 mi Calm Calm - N/A   Unknown
1:35 PM 26.4 °F - 20.3 °F 78% 29.91 in 10.0 mi Calm Calm - N/A   Unknown
1:55 PM 27.0 °F - 21.2 °F 79% 29.92 in 10.0 mi Calm Calm - N/A   Unknown
2:15 PM 27.5 °F - 21.9 °F 80% 29.91 in 10.0 mi Calm Calm - N/A Snow Light Snow
2:35 PM 27.5 °F - 21.7 °F 79% 29.91 in 10.0 mi Calm Calm - N/A   Unknown
2:55 PM 27.5 °F - 22.1 °F 80% 29.90 in 10.0 mi Calm Calm - N/A   Unknown
3:15 PM 27.9 °F - 22.3 °F 80% 29.90 in 10.0 mi Calm Calm - N/A   Unknown
3:55 PM 28.0 °F - 22.1 °F 78% 29.89 in 10.0 mi Calm Calm - N/A   Unknown
4:15 PM 27.9 °F - 22.3 °F 80% 29.90 in 10.0 mi Calm Calm - N/A   Unknown
4:35 PM 27.5 °F - 22.5 °F 81% 29.90 in 10.0 mi Calm Calm - N/A   Unknown
4:55 PM 27.3 °F - 23.0 °F 84% 29.90 in 10.0 mi Calm Calm - N/A Snow Light Snow
5:15 PM 27.5 °F - 22.6 °F 82% 29.91 in 10.0 mi Calm Calm - N/A Snow Light Snow
5:55 PM 27.0 °F - 23.9 °F 88% 29.91 in 5.0 mi Calm Calm - N/A Snow Light Snow
6:15 PM 27.0 °F - 24.3 °F 90% 29.91 in 7.0 mi Calm Calm - N/A Snow Light Snow
6:35 PM 27.0 °F - 24.6 °F 91% 29.91 in 7.0 mi Calm Calm - N/A Snow Light Snow
6:55 PM 27.0 °F - 24.8 °F 92% 29.92 in 4.0 mi Calm Calm - N/A Snow Light Snow
7:15 PM 27.0 °F - 25.2 °F 93% 29.92 in 4.0 mi Calm Calm - N/A Snow Light Snow
7:35 PM 27.0 °F - 25.3 °F 94% 29.92 in 4.0 mi Calm Calm - N/A Snow Light Snow
7:55 PM 27.0 °F - 25.5 °F 94% 29.93 in 4.0 mi Calm Calm - N/A Snow Light Snow
8:35 PM 26.6 °F - 25.5 °F 96% 29.92 in 7.0 mi Calm Calm - N/A Snow Light Snow
8:55 PM 26.4 °F - 25.3 °F 96% 29.91 in 7.0 mi Calm Calm - N/A   Unknown
9:15 PM 26.1 °F - 25.2 °F 96% 29.91 in 7.0 mi Calm Calm - N/A   Unknown
9:55 PM 25.3 °F - 24.4 °F 96% 29.91 in 7.0 mi Calm Calm - N/A   Unknown
10:55 PM 25.2 °F - 24.4 °F 97% 29.92 in 4.0 mi Calm Calm - N/A Snow Light Snow
11:15 PM 25.3 °F - 24.6 °F 97% 29.92 in 7.0 mi Calm Calm - N/A   Unknown
11:35 PM 25.3 °F - 24.4 °F 96% 29.91 in 7.0 mi Calm Calm - N/A   Unknown
11:55 PM 25.3 °F - 24.4 °F 96% 29.92 in 7.0 mi Calm Calm - N/A   Unknown